Back to catalog

STARLINK-11113

AliveCommunicationsVLEO
NORAD 59947·PAYLOAD·🇺🇸 United States

Launched Jun 5, 2024 from Cape Canaveral Space Force Station

Loading…

Next Passes (next 24 hours)

TLE

FreshSource: CelesTrak SupGP

Epoch: Sep 14, 2026, 14:40 UTC

1 59947C 24107C   26257.61159722 -.00056660  00000+0 -46667-3 0  2576
2 59947  53.1571  39.5676 0000948  85.1171 263.4648 15.69740775    13

Track STARLINK-11113 in real time with AllMySat

Download on the App Store